Cape Cod CGAS, MA

9:15 PM EST on November 19, 2017 (GMT -0500)
Cape Cod Coast Guard Air Station

Weather History for KFMH - October, 2014

Change the Weather History Date:

Friday, October 17, 2014

  Actual Average Record
Temperature  
Mean Temperature 64 °F -  
Max Temperature 68 °F 57 °F 75 °F (2016)
Min Temperature 59 °F 41 °F 33 °F (2006)
Degree Days  
Heating Degree Days 2    
Growing Degree Days 14 (Base 50)    
Moisture  
Dew Point 59 °F    
Average Humidity 87    
Maximum Humidity 100    
Minimum Humidity 64    
Precipitation  
Precipitation 0.08 in - - ()
Sea Level Pressure  
Sea Level Pressure 29.69 in    
Wind  
Wind Speed 9 mph (SW)    
Max Wind Speed 23 mph    
Max Gust Speed 31 mph    
Visibility 9 miles    
Events Rain    
Averages and records for this station are not official NWS values.
T = Trace of Precipitation, MM = Missing Value Source: NWS Daily Summary

Daily Weather History Graph

Daily Weather History Graph

Search for Another Location

Airport or City:

Trip Planner

Search our weather history database for the weather conditions in past years. The results will help you decide how hot, cold, wet, or windy it might be!

Date:

Astronomy

Oct. 17, 2014 Rise Set
Actual Time 6:56 AM EDT 5:57 PM EDT
Civil Twilight 6:28 AM EDT 6:25 PM EDT
Nautical Twilight 5:56 AM EDT 6:58 PM EDT
Astronomical Twilight 5:23 AM EDT 7:30 PM EDT
Moon 12:53 AM EDT (10/17) 2:47 PM EDT (10/17)
Length of Visible Light 11h 57m
Length of Day
11h 01m
Waning Crescent, 33% of the Moon is Illuminated
Oct 17
Waning Crescent
Oct 23
New
Oct 30
First Quarter
Nov 6
Full
Nov 14
Last Quarter

Hourly Weather History & Observations

Time (EDT) Temp. Dew Point Humidity Pressure Visibility Wind Dir Wind Speed Gust Speed Precip Events Conditions
12:15 AM 60.8 °F 60.8 °F 100% 29.72 in 10.0 mi South 6.9 mph - N/A   Overcast
12:35 AM 60.8 °F 60.8 °F 100% 29.72 in 10.0 mi SSW 5.8 mph - N/A   Overcast
12:55 AM 60.8 °F 60.8 °F 100% 29.70 in 9.0 mi Calm Calm - N/A   Overcast
1:15 AM 60.8 °F 59.0 °F 94% 29.69 in 9.0 mi ESE 5.8 mph - N/A   Overcast
1:35 AM 60.8 °F 60.8 °F 100% 29.71 in 9.0 mi WSW 6.9 mph - N/A   Overcast
1:55 AM 60.8 °F 60.8 °F 100% 29.70 in 10.0 mi SW 5.8 mph - N/A   Overcast
2:15 AM 60.8 °F 60.8 °F 100% 29.68 in 10.0 mi Calm Calm - N/A   Overcast
2:35 AM 60.8 °F 60.8 °F 100% 29.68 in 10.0 mi South 4.6 mph - N/A   Overcast
2:55 AM 60.8 °F 60.8 °F 100% 29.64 in 10.0 mi East 5.8 mph - N/A   Overcast
3:15 AM 60.8 °F 60.8 °F 100% 29.61 in 8.0 mi North 4.6 mph - N/A   Mostly Cloudy
3:35 AM 60.8 °F 60.8 °F 100% 29.64 in 9.0 mi Calm Calm - N/A   Overcast
3:55 AM 60.8 °F 60.8 °F 100% 29.66 in 6.0 mi SW 6.9 mph - N/A   Overcast
4:15 AM 60.8 °F 60.8 °F 100% 29.61 in 6.0 mi NNE 4.6 mph - N/A   Overcast
4:35 AM 60.8 °F 59.0 °F 94% 29.63 in 5.0 mi Calm Calm - N/A   Mostly Cloudy
4:55 AM 60.8 °F 59.0 °F 94% 29.64 in 10.0 mi SW 6.9 mph - N/A   Mostly Cloudy
5:15 AM 59.0 °F 59.0 °F 100% 29.64 in 9.0 mi South 5.8 mph - N/A   Clear
5:35 AM 59.0 °F 59.0 °F 100% 29.64 in 9.0 mi South 5.8 mph - N/A   Partly Cloudy
5:55 AM 60.8 °F 59.0 °F 94% 29.65 in 8.0 mi South 5.8 mph - N/A   Mostly Cloudy
6:15 AM 60.8 °F 60.8 °F 100% 29.65 in 10.0 mi SSW 5.8 mph - N/A   Overcast
6:35 AM 60.8 °F 59.0 °F 94% 29.64 in 9.0 mi SSW 3.5 mph - N/A   Overcast
6:55 AM 59.0 °F 59.0 °F 100% 29.65 in 7.0 mi SSW 6.9 mph - N/A   Mostly Cloudy
7:15 AM 59.0 °F 57.2 °F 94% 29.65 in 1.5 mi SW 6.9 mph - N/A   Scattered Clouds
7:35 AM 59.0 °F 59.0 °F 100% 29.67 in 4.0 mi SSW 6.9 mph - N/A   Mostly Cloudy
7:55 AM 62.6 °F 62.6 °F 100% 29.68 in 8.0 mi SW 9.2 mph - N/A   Overcast
8:15 AM 62.6 °F 62.6 °F 100% 29.68 in 8.0 mi SSW 10.4 mph - N/A   Mostly Cloudy
8:35 AM 62.6 °F 62.6 °F 100% 29.68 in 9.0 mi SSW 10.4 mph - N/A   Mostly Cloudy
8:55 AM 62.6 °F 62.6 °F 100% 29.68 in 9.0 mi SW 11.5 mph - N/A   Overcast
9:15 AM 62.6 °F 62.6 °F 100% 29.68 in 9.0 mi SW 15.0 mph 21.9 mph N/A   Mostly Cloudy
9:35 AM 64.4 °F 60.8 °F 88% 29.68 in 8.0 mi SW 12.7 mph 18.4 mph N/A   Mostly Cloudy
9:55 AM 64.4 °F 59.0 °F 83% 29.68 in 10.0 mi WSW 13.8 mph 25.3 mph N/A   Scattered Clouds
10:15 AM 64.4 °F 59.0 °F 83% 29.68 in 9.0 mi SW 19.6 mph 25.3 mph N/A   Scattered Clouds
10:35 AM 64.4 °F 59.0 °F 83% 29.68 in 9.0 mi WSW 20.7 mph - N/A   Mostly Cloudy
10:55 AM 66.2 °F 59.0 °F 78% 29.69 in 9.0 mi WSW 18.4 mph 26.5 mph N/A   Scattered Clouds
11:15 AM 66.2 °F 59.0 °F 78% 29.70 in 10.0 mi SW 19.6 mph - N/A   Mostly Cloudy
11:35 AM 66.2 °F 59.0 °F 78% 29.70 in 9.0 mi WSW 18.4 mph 27.6 mph N/A   Mostly Cloudy
11:55 AM 66.2 °F 59.0 °F 78% 29.70 in 10.0 mi SW 16.1 mph 26.5 mph N/A   Scattered Clouds
12:15 PM 68.0 °F 59.0 °F 73% 29.69 in 10.0 mi WSW 17.3 mph 24.2 mph N/A   Scattered Clouds
12:35 PM 68.0 °F 57.2 °F 68% 29.69 in 10.0 mi SW 21.9 mph 28.8 mph N/A   Clear
12:55 PM 68.0 °F 55.4 °F 64% 29.68 in 10.0 mi SW 23.0 mph 29.9 mph N/A   Clear
1:15 PM 68.0 °F 55.4 °F 64% 29.68 in 10.0 mi WSW 20.7 mph - N/A   Clear
1:35 PM 68.0 °F 57.2 °F 68% 29.68 in 10.0 mi SW 19.6 mph 25.3 mph N/A   Clear
1:55 PM 68.0 °F 57.2 °F 68% 29.68 in 10.0 mi SW 20.7 mph 31.1 mph N/A   Clear
2:15 PM 68.0 °F 57.2 °F 68% 29.68 in 10.0 mi SW 17.3 mph 28.8 mph N/A   Clear
2:35 PM 68.0 °F 57.2 °F 68% 29.69 in 10.0 mi SW 19.6 mph 26.5 mph N/A   Clear
2:55 PM 68.0 °F 57.2 °F 68% 29.69 in 10.0 mi SW 17.3 mph 26.5 mph N/A   Clear
3:15 PM 68.0 °F 57.2 °F 68% 29.69 in 10.0 mi SW 18.4 mph 27.6 mph N/A   Clear
3:35 PM 68.0 °F 57.2 °F 68% 29.70 in 10.0 mi SW 21.9 mph 28.8 mph N/A   Clear
3:55 PM 66.2 °F 55.4 °F 68% 29.70 in 10.0 mi SW 16.1 mph 26.5 mph N/A   Clear
4:15 PM 66.2 °F 55.4 °F 68% 29.70 in 10.0 mi WSW 18.4 mph 28.8 mph N/A   Clear
4:35 PM 66.2 °F 57.2 °F 73% 29.70 in 10.0 mi SW 16.1 mph 21.9 mph N/A   Clear
4:55 PM 64.4 °F 57.2 °F 77% 29.70 in 10.0 mi SW 18.4 mph 25.3 mph N/A   Clear
5:15 PM 64.4 °F 57.2 °F 77% 29.71 in 10.0 mi SW 16.1 mph 21.9 mph N/A   Clear
5:35 PM 62.6 °F 57.2 °F 82% 29.71 in 10.0 mi SW 15.0 mph 21.9 mph N/A   Clear
5:55 PM 62.6 °F 57.2 °F 82% 29.71 in 10.0 mi SW 15.0 mph - N/A   Clear
6:15 PM 62.6 °F 57.2 °F 82% 29.71 in 10.0 mi SW 13.8 mph - N/A   Clear
6:35 PM 60.8 °F 57.2 °F 88% 29.72 in 10.0 mi SW 11.5 mph 19.6 mph N/A   Clear
6:55 PM 60.8 °F 57.2 °F 88% 29.72 in 10.0 mi SW 12.7 mph - N/A   Clear
7:15 PM 60.8 °F 57.2 °F 88% 29.72 in 10.0 mi SW 11.5 mph - N/A   Clear
7:35 PM 60.8 °F 57.2 °F 88% 29.73 in 10.0 mi SW 10.4 mph - N/A   Clear
7:55 PM 60.8 °F 57.2 °F 88% 29.73 in 10.0 mi SSW 10.4 mph - N/A   Clear
8:15 PM 60.8 °F 57.2 °F 88% 29.72 in 10.0 mi SSW 11.5 mph - N/A   Clear
8:35 PM 60.8 °F 57.2 °F 88% 29.72 in 10.0 mi SW 11.5 mph - N/A   Clear
8:55 PM 60.8 °F 57.2 °F 88% 29.72 in 10.0 mi SW 11.5 mph - N/A   Clear
9:15 PM 60.8 °F 57.2 °F 88% 29.72 in 10.0 mi SSW 9.2 mph 16.1 mph N/A   Clear
9:35 PM 60.8 °F 57.2 °F 88% 29.72 in 10.0 mi SSW 10.4 mph - N/A   Clear
9:55 PM 60.8 °F 57.2 °F 88% 29.72 in 10.0 mi SW 8.1 mph - N/A   Clear
10:15 PM 60.8 °F 57.2 °F 88% 29.72 in 10.0 mi SW 10.4 mph - N/A   Clear
10:35 PM 60.8 °F 57.2 °F 88% 29.72 in 10.0 mi SW 11.5 mph - N/A   Clear
10:55 PM 60.8 °F 57.2 °F 88% 29.71 in 10.0 mi SW 10.4 mph - N/A   Clear
11:15 PM 60.8 °F 59.0 °F 94% 29.71 in 10.0 mi WSW 13.8 mph - N/A   Clear
11:35 PM 60.8 °F 59.0 °F 94% 29.71 in 10.0 mi SW 10.4 mph - N/A   Clear
11:55 PM 60.8 °F 59.0 °F 94% 29.70 in 10.0 mi SW 8.1 mph - N/A   Clear